SCP
0 0 0 0 0 0 0 0 0 0 0 0 0 0 0 0 0 0 0 0 0 0 0 0 0 0 0 0 0 0 0 0 0 0 0 0 0 0 0 0 0 0 0 0 0 0 0 0 0
0 0 0 0 0 0 0 0 0 0 0 0 0 0 0 0 0 0 0 0 0 0 0 0 0 0 0 0 0 0 0 0 0 0 0 0 0 0 0 0 0 0 0 0 0 0 0 0 0
0 0 0 0 0 0 0 0 0 0 0 0 0 0 0 0 0 0 0 0 0 0 0 0 0 0 0 0 0 0 0 0 0 0 0 0 0 0 0 0 0 0 0 0 0 0 0 0 0
0 0 0 0 0 0 0 0 0 0 0 0 0 0 0 0 0 0 0 0 0 0 0 0 0 0 0 0 0 0 0 0 0 0 0 0 0 0 0 0 0 0 0 0 0 0 0 0 0
0 0 0 0 0 0 0 0 0 0 0 0 0 0 0 0 0 0 0 0 0 0 0 0 0 0 0 0 0 0 0 0 0 0 0 0 0 0 0 0 0 0 0 0 0 0 0 0 0
0 0 0 0 0 0 0 0 0 0 0 0 0 0 0 0 0 0 0 0 0 0 0 0 0 0 0 0 0 0 0 0 0 0 0 0 0 0 0 0 0 0 0 0 0 0 0 0 0
0 0 0 0 0 0 0 0 0 0 0 0 0 0 0 0 0 0 0 0 0 0 0 0 0 0 0 0 0 0 0 0 0 0 0 0 0 0 0 0 0 0 0 0 0 0 0 0 0
0 0 0 0 0 0 0 0 0 0 0 0 0 0 0 0 0 0 0 0 0 0 0 0 0 0 0 0 0 0 0 0 0 0 0 0 0 0 0 0 0 0 0 0 0 0 0 0 0
0 0 0 0 0 0 0 0 0 0 0 0 0 0 0 0 0 0 0 0 0 0 0 0 0 0 0 0 0 0 0 0 0 0 0 0 0 0 0 0 0 0 0 0 0 0 0 0 0
0 0 0 0 0 0 0 0 0 0 0 0 0 0 0 0 0 0 0 0 0 0 0 0 0 0 0 0 0 0 0 0 0 0 0 0 0 0 0 0 0 0 0 0 0 0 0 0 0
0 0 0 0 0 0 0 0 0 0 0 0 0 0 0 0 0 0 0 0 0 0 0 0 0 0 0 0 0 0 0 0 0 0 0 0 0 0 0 0 0 0 0 0 0 0 0 0 0
0 0 0 0 0 0 0 0 0 0 0 0 0 0 0 0 0 0 0 0 0 0 0 0 0 0 0 0 0 0 0 0 0 0 0 0 0 0 0 0 0 0 0 0 0 0 0 0 0
0 0 0 0 0 0 0 0 0 0 0 0 0 0 0 0 0 0 0 0 0 0 0 0 0 0 0 0 0 0 0 0 0 0 0 0 0 0 0 0 0 0 0 0 0 0 0 0 0
0 0 0 0 0 0 0 0 0 0 0 0 0 0 0 0 0 0 0 0 0 0 0 0 0 0 0 0 0 0 0 0 0 0 0 0 0 0 0 0 0 0 0 0 0 0 0 0 0
0 0 0 0 0 0 0 0 0 0 0 0 0 0 0 0 0 0 0 0 0 0 0 0 0 0 0 0 0 0 0 0 0 0 0 0 0 0 0 0 0 0 0 0 0 0 0 0 0
0 0 0 0 0 0 0 0 0 0 0 0 0 0 0 0 0 0 0 0 0 0 0 0 0 0 0 0 0 0 0 0 0 0 0 0 0 0 0 0 0 0 0 0 0 0 0 0 0
0 0 0 0 0 0 0 0 0 0 0 0 0 0 0 0 0 0 0 0 0 0 0 0 0 0 0 0 0 0 0 0 0 0 0 0 0 0 0 0 0 0 0 0 0 0 0 0 0
0 0 0 0 0 0 0 0 0 0 0 0 0 0 0 0 0 0 0 0 0 0 0 0 0 0 0 0 0 0 0 0 0 0 0 0 0 0 0 0 0 0 0 0 0 0 0 0 0
0 0 0 0 0 0 0 0 0 0 0 0 0 0 0 0 0 0 0 0 0 0 0 0 0 0 0 0 0 0 0 0 0 0 0 0 0 0 0 0 0 0 0 0 0 0 0 0 0
0 0 0 0 0 0 0 0 0 0 0 0 0 0 0 0 0 0 0 0 0 0 0 0 0 0 0 0 0 0 0 0 0 0 0 0 0 0 0 0 0 0 0 0 0 0 0 0 0
0 0 0 0 0 0 0 0 0 0 0 0 0 0 0 0 0 0 0 0 0 0 0 0 0 0 0 0 0 0 0 0 0 0 0 0 0 0 0 0 0 0 0 0 0 0 0 0 0
0 0 0 0 0 0 0 0 0 0 0 0 0 0 0 0 0 0 0 0 0 0 0 0 0 0 0 0 0 0 0 0 0 0 0 0 0 0 0 0 0 0 0 0 0 0 0 0 0
0 0 0 0 0 0 0 0 0 0 0 0 0 0 0 0 0 0 0 0 0 0 0 0 0 0 0 0 0 0 0 0 0 0 0 0 0 0 0 0 0 0 0 0 0 0 0 0 0
0 0 0 0 0 0 0 0 0 0 0 0 0 0 0 0 0 0 0 0 0 0 0 0 0 0 0 0 0 0 0 0 0 0 0 0 0 0 0 0 0 0 0 0 0 0 0 0 0
0 0 0 0 0 0 0 0 0 0 0 0 0 0 0 -0 0 0 0 0 0 0 0 0 0 0 0 0 0 0 0 0 0 0 0 0 0 0 0 0 0 0 0 0 0 0 0 0 0
0 0 0 0 0 0 0 0 0 0 0 0 0 -0 -0 -0 0 0 0 0 0 0 0 0 0 0 0 0 0 0 0 0 0 0 0 0 0 0 0 0 0 0 0 0 0 0 0 0 0
0 0 0 0 0 0 0 0 0 0 0 0 -0 -0 -0 -0 -0 0 0 0 0 0 0 0 0 0 0 0 0 0 0 0 0 0 0 0 0 0 0 0 0 0 0 0 0 0 0 0 0
0 0 0 0 0 0 0 0 0 0 0 -0 -0 -0 -0 -0 -0 0 0 0 0 0 0 0 0 0 0 0 -0 -0 0 0 0 0 0 0 0 0 0 0 0 0 0 0 0 0 0 0 0
0 0 0 0 0 0 0 0 0 0 0 -0 0 -0 -0 -0 -0 0 0 0 0 0 0 0 0 0 0 0 -0 -0 0 0 0 0 0 0 0 0 0 0 0 0 0 0 0 0 0 0 0
0 0 0 0 0 0 0 0 0 -0 -0 -0 0 0 0 0 0 0 0 0 0 0 0 0 0 0 0 0 -0 -0 0 0 0 0 0 0 0 0 0 0 0 0 0 0 0 0 0 0 0
Wind_Speed
11 9 6 3 3 5 7 3 1 1 2 4 5 4 5 5 5 5 3 5 5 5 6 6 6 6 6 6 6 5 5 5 6 6 5 5 5 6 6 6 7 7 8 9 10 11 11 11 11
9 7 4 3 4 6 5 2 2 3 4 3 3 3 4 5 6 6 4 5 4 5 6 5 6 6 6 6 6 5 5 5 6 5 5 5 5 5 6 6 6 7 8 9 10 10 10 10 10
9 6 4 3 4 5 2 2 4 5 4 2 2 3 3 4 5 4 3 3 4 5 5 6 7 6 6 6 5 5 5 5 5 5 5 4 5 5 5 5 5 6 7 9 9 10 10 9 9
4 3 3 4 6 3 1 1 3 3 2 2 2 3 4 6 5 4 3 3 4 5 5 6 7 6 5 5 5 5 5 5 5 5 4 4 4 4 5 5 5 6 7 8 9 9 9 8 8
4 3 5 5 6 3 2 2 1 1 1 2 2 2 3 5 6 5 4 4 5 5 5 5 6 6 6 5 4 4 4 5 5 5 5 5 4 5 5 5 5 5 6 7 8 8 8 7 7
3 3 5 7 6 3 1 1 1 1 1 2 2 1 3 4 5 5 4 4 5 5 4 4 5 5 5 5 4 4 4 4 5 5 5 5 4 5 5 5 5 5 5 7 7 7 7 7 6
4 4 6 6 3 3 1 1 1 2 2 2 3 0 3 4 5 4 3 3 5 5 5 4 3 3 4 4 4 4 3 4 4 5 5 5 5 5 5 6 6 5 6 6 6 6 6 6 5
4 3 6 5 4 3 1 1 2 3 2 3 4 1 2 2 3 3 3 3 5 5 4 3 2 2 2 2 3 3 3 4 4 4 4 5 5 5 5 5 6 6 6 6 6 6 5 5 4
4 4 5 4 3 1 2 1 1 2 1 1 2 3 4 3 3 2 2 3 3 4 4 3 2 2 1 1 1 2 2 3 3 3 3 3 2 3 3 4 5 5 5 6 6 5 5 4 3
2 4 3 3 3 1 2 1 0 1 1 1 1 2 3 3 2 2 2 2 3 3 3 3 3 2 2 1 1 0 1 1 1 1 1 1 2 2 3 4 4 5 5 5 5 4 4 3 1
2 2 1 3 4 2 2 2 2 2 2 2 1 2 3 3 2 1 1 1 2 2 2 3 2 3 2 1 0 0 0 1 1 1 1 1 1 2 2 2 2 2 3 2 2 2 1 1 1
2 1 2 2 3 2 1 2 3 3 2 1 1 1 3 2 1 1 0 1 1 2 2 2 3 2 3 2 1 1 1 1 1 1 2 1 1 1 1 1 1 1 1 1 1 1 1 1 1
2 2 1 1 1 1 1 2 3 4 3 1 0 0 2 2 2 1 0 0 1 1 1 2 2 2 2 2 1 1 1 1 1 1 1 2 1 1 1 1 1 1 1 1 1 1 1 1 1
0 1 2 2 2 1 2 4 4 5 3 3 2 2 2 2 2 2 1 0 0 0 0 1 1 2 2 2 2 1 1 1 1 1 1 1 1 1 1 1 1 1 1 1 1 1 1 1 0
1 2 4 4 4 3 2 5 7 5 4 5 4 4 3 3 2 2 2 2 1 1 0 0 1 1 1 2 2 1 0 1 0 1 1 1 1 1 1 1 1 1 1 2 1 1 1 1 1
5 4 4 4 4 4 3 6 3 3 4 5 5 4 3 3 3 2 2 1 1 1 1 1 0 1 1 1 1 1 1 1 0 0 1 1 1 1 1 1 1 1 1 1 2 1 2 1 1
5 5 5 3 3 2 4 6 2 2 4 5 4 4 3 3 2 2 2 1 1 1 1 1 1 0 1 1 1 1 1 0 0 1 1 0 1 1 2 1 1 1 1 1 2 1 1 1 1
3 4 5 4 2 3 6 8 5 5 6 6 5 4 4 3 3 2 2 2 1 1 1 1 1 1 0 0 1 1 0 0 0 1 1 1 1 1 2 2 2 1 1 1 1 2 2 1 1
5 5 6 5 3 4 8 10 8 7 7 6 5 4 4 4 2 2 1 1 1 1 1 1 1 1 0 0 1 1 1 0 0 0 1 1 1 1 2 1 2 1 1 1 1 2 2 1 1
5 6 6 4 3 5 8 11 9 8 8 6 5 4 3 3 1 0 1 1 1 0 0 1 1 1 1 1 1 1 1 1 1 0 0 0 1 1 2 2 1 1 2 2 2 2 1 1 1
5 5 4 5 6 6 7 9 7 5 6 5 4 3 2 2 1 1 0 1 0 0 1 1 1 1 1 0 0 1 0 0 0 0 1 0 1 1 2 2 2 1 2 2 2 2 2 1 1
5 3 4 5 5 4 3 7 5 5 5 5 3 1 0 0 0 0 1 1 1 1 1 1 1 1 1 1 1 2 2 2 2 1 1 1 1 1 2 2 2 2 1 2 2 2 1 2 2
3 3 5 6 6 6 6 6 7 4 3 3 2 1 1 1 1 1 0 1 0 0 0 1 1 1 1 2 2 2 2 2 1 1 1 1 1 1 1 1 2 2 2 2 2 2 2 1 2
2 4 5 5 3 6 7 6 6 2 2 2 2 1 0 1 1 2 2 1 1 1 1 1 0 1 2 2 2 3 2 2 2 1 2 2 1 1 1 1 1 1 1 2 2 2 3 2 2
2 1 2 2 4 6 2 4 6 1 1 2 2 1 1 2 1 1 1 1 1 1 1 1 1 2 2 2 3 3 3 3 3 3 3 2 2 1 2 2 2 1 1 1 1 2 2 2 2
3 3 2 3 4 4 3 7 4 0 2 2 2 2 2 2 1 0 0 0 0 1 1 1 1 2 2 2 2 2 2 2 2 2 2 2 2 2 2 2 2 2 1 1 1 1 2 2 2
2 3 2 2 4 5 6 4 2 2 0 0 1 1 1 0 0 1 1 0 0 1 1 1 2 2 2 2 2 2 2 2 2 2 1 1 1 1 2 2 2 1 2 2 2 2 2 2 2
2 1 1 2 3 6 6 6 4 3 3 2 2 2 2 1 1 1 1 1 1 1 1 1 1 2 2 2 2 2 2 2 2 1 1 1 1 1 1 2 2 2 2 2 2 2 2 2 2
3 3 3 4 4 4 6 5 1 3 2 3 3 2 2 1 1 2 1 1 1 0 0 1 2 2 1 1 1 1 1 1 1 1 1 1 1 1 2 2 2 2 2 2 2 2 2 2 2
3 4 4 4 5 4 6 7 1 1 1 1 2 2 1 1 2 1 1 1 0 0 1 1 1 2 2 2 1 1 1 0 1 1 1 0 0 1 1 1 1 1 1 2 2 3 2 3 2
Wind_Direction
297 275 262 257 243 234 240 235 145 113 67 35 32 33 44 30 31 84 76 36 47 76 105 108 83 87 88 89 96 101 100 100 99 99 99 97 97 97 94 92 91 91 94 94 92 90 89 85 82
293 278 261 237 241 234 228 202 150 63 77 71 45 32 61 62 58 82 53 24 53 79 97 103 87 84 84 86 90 94 96 100 103 100 99 98 100 98 94 95 96 95 99 99 95 92 88 85 83
281 267 258 236 237 256 220 96 87 82 77 72 65 27 35 48 58 57 33 24 60 68 81 89 81 83 82 83 87 91 94 98 105 104 99 96 99 98 95 93 98 100 101 101 98 95 91 85 83
273 237 243 252 242 256 287 51 82 104 86 61 83 75 71 49 37 41 37 45 64 62 70 84 73 73 78 85 85 82 86 92 96 99 100 98 102 99 95 96 97 99 101 101 98 95 93 88 83
244 247 224 233 241 255 323 355 353 87 88 67 58 75 77 62 52 54 39 38 65 65 63 81 68 67 69 72 82 84 82 87 85 87 92 94 95 95 90 89 90 97 101 101 98 97 96 92 87
247 242 233 228 219 213 252 334 337 20 36 43 30 66 83 72 52 50 41 37 60 66 62 75 67 61 66 69 70 71 81 88 85 86 90 88 90 99 93 88 86 88 95 99 95 97 101 96 90
265 256 253 254 227 217 207 28 337 342 359 4 346 77 113 79 50 46 51 40 56 63 62 61 71 70 62 62 60 60 64 79 84 83 83 83 86 92 93 86 88 89 88 92 91 89 100 101 95
287 277 256 252 241 235 117 68 4 343 342 359 353 5 102 77 53 53 62 52 50 52 54 53 52 58 62 60 57 62 65 80 84 85 86 89 90 88 95 90 90 96 96 89 86 85 96 105 101
284 255 253 263 253 155 110 140 25 9 23 12 33 36 55 83 73 60 54 52 45 39 34 33 34 30 29 58 79 93 89 87 95 96 96 103 106 103 106 103 98 102 102 100 98 95 92 90 94
252 249 266 330 0 40 56 4 126 229 254 266 103 69 80 88 85 64 46 39 27 31 21 15 12 13 10 19 83 179 118 104 96 87 118 126 92 89 87 100 101 103 103 102 107 109 106 90 88
265 251 290 358 23 29 12 350 340 266 253 244 213 167 123 113 106 79 33 40 21 17 23 5 353 357 359 356 43 356 61 68 67 70 52 79 91 99 97 107 103 103 102 106 110 124 136 105 81
251 328 317 334 3 355 324 296 298 289 281 47 31 108 139 151 154 163 295 6 21 12 10 7 353 357 352 357 6 23 46 57 56 56 59 54 76 89 99 110 122 118 111 109 114 125 109 98 85
230 261 305 327 358 13 322 273 275 266 273 296 297 111 174 166 175 198 197 55 36 9 360 360 357 5 1 357 2 40 45 70 80 83 70 66 67 88 91 99 110 107 96 106 124 119 112 107 85
144 206 268 272 264 251 252 259 252 248 239 234 237 227 225 205 194 189 188 188 320 318 338 349 354 10 12 4 2 20 56 72 89 89 73 80 87 92 95 114 109 102 100 90 96 104 103 102 100
184 228 246 238 229 214 249 262 234 227 224 234 233 228 220 220 208 210 197 192 206 205 129 20 340 11 18 7 358 1 43 53 95 110 98 82 77 90 110 106 109 105 114 109 92 81 81 85 77
227 235 240 218 212 199 226 258 233 212 217 230 228 224 215 218 208 210 202 189 190 174 153 139 7 355 5 5 353 350 4 57 92 109 101 91 88 90 101 104 104 96 112 110 105 94 82 70 59
219 239 245 244 215 208 229 255 240 249 234 234 231 227 221 220 212 204 196 194 195 190 178 153 132 351 337 347 344 327 337 346 66 67 84 79 99 107 106 111 100 102 104 110 111 99 92 84 64
260 266 271 265 235 249 250 259 254 234 236 241 233 225 221 228 231 210 192 190 181 160 155 152 150 162 234 8 343 315 304 352 67 109 79 82 107 110 108 115 109 113 113 103 104 111 92 95 91
297 280 276 285 302 278 260 263 259 245 238 240 237 227 223 233 231 199 156 127 116 118 147 152 154 160 159 200 254 263 249 243 278 141 99 102 121 128 119 116 133 131 143 146 133 119 120 103 92
281 279 284 294 316 296 276 271 259 240 232 230 226 224 225 229 199 136 131 103 112 128 146 157 180 174 191 258 247 255 263 234 236 20 76 87 92 123 123 128 145 157 153 140 128 121 117 148 130
276 273 291 301 308 265 274 275 240 220 216 215 214 214 208 208 208 213 172 121 82 324 244 224 209 201 198 298 334 320 68 71 43 270 261 185 157 138 136 138 138 164 159 162 159 156 136 174 212
269 319 310 297 294 276 257 286 253 212 208 203 206 200 182 200 200 185 161 181 212 266 268 225 205 206 203 211 224 222 206 209 228 216 239 233 182 162 146 152 150 160 166 166 171 167 174 166 185
291 313 283 269 265 279 246 254 267 203 206 195 178 159 66 42 63 33 78 190 212 128 298 242 184 212 214 225 235 232 242 225 221 198 212 237 202 169 141 154 156 166 176 176 176 177 178 181 180
300 293 274 250 243 257 229 224 268 206 211 166 158 159 113 83 65 44 37 46 32 35 348 320 214 240 233 230 234 231 241 237 215 213 216 226 221 187 160 159 170 184 189 183 184 183 184 197 197
282 293 303 275 227 242 202 231 252 272 57 129 146 162 106 87 85 54 40 31 4 348 319 307 306 269 257 241 235 241 245 235 220 217 219 218 216 227 194 183 196 205 208 190 186 187 190 195 197
235 238 231 253 265 291 276 241 241 40 45 61 100 109 96 79 58 338 265 206 296 310 307 320 288 267 261 254 254 255 255 238 235 233 225 216 210 224 204 191 198 202 195 190 187 188 195 196 198
244 231 273 281 285 273 251 237 245 212 217 321 73 56 57 45 352 302 298 206 191 256 268 286 284 280 267 261 264 259 260 265 263 248 225 210 206 218 199 186 187 188 184 181 180 191 196 191 192
281 311 199 219 254 268 264 249 235 207 218 227 262 266 270 289 302 295 298 288 248 244 269 292 279 268 271 274 265 269 266 271 281 258 226 200 189 176 195 191 184 194 194 175 174 181 190 188 196
199 227 232 243 244 252 275 265 205 197 210 211 234 241 248 241 254 276 283 271 249 272 285 284 297 299 294 285 289 290 285 303 302 284 263 229 194 169 190 206 192 198 205 191 180 178 178 195 204
228 225 204 218 249 246 269 271 314 146 153 209 249 255 262 283 289 276 277 284 287 290 287 277 295 300 291 284 280 291 302 320 293 289 294 290 222 165 196 200 186 192 215 195 192 191 188 195 204